Retour au catalogue

SL-8 R/B

ActifPO
NORAD 11804·ROCKET BODY·🇷🇺 Russia

Lancé May 20, 1980 depuis Plesetsk Cosmodrome

Loading…

Prochains Passages (prochaines 24 heures)

TLE

FraisSource: Space-Track

Époque: Sep 14, 2026, 07:44 UTC

1 11804U 80039B   26257.32262623  .00000134  00000-0  12132-3 0  9992
2 11804  82.9391 104.6843 0021168 156.1619 204.0524 13.76600509325522

Suivez SL-8 R/B en temps réel avec AllMySat

Download on the App Store